Simultaneous Nadir Overpasses (SNOs) Predictions

Prediction of SNOs between LANDSAT-8 and METOP-A Satellite Orbit:

Table of predicted SNOs for the next 14.0 days since TLE Epoch: 10/21/2017
Index Date (LANDSAT-8) Time (LANDSAT-8) Lat,Lon (LANDSAT-8) SZA (LANDSAT-8 ) Date (METOP-A) Time (METOP-A) Lat,Lon (METOP-A) SZA (METOP-A ) Distance(km) Time Diff (sec)
1 10/22/2017 10:56:00 -80.59,-130.85 86.40 10/22/2017 10:54:46 -80.85,-131.70 86.30 32.62 74
2 10/22/2017 11:45:00 81.27, 46.01 95.07 10/22/2017 11:44:59 81.26, 46.01 95.07 0.37 1
3 10/22/2017 12:34:26 -81.28,-146.08 84.88 10/22/2017 12:35:38 -81.28,-146.09 84.85 0.66 72
4 10/25/2017 06:29:50 -81.25, -55.55 84.01 10/25/2017 06:28:39 -81.24, -55.63 84.05 1.29 71
5 10/25/2017 07:19:16 81.25, 112.19 96.02 10/25/2017 07:19:19 81.25, 112.07 96.01 1.93 3
6 10/28/2017 02:04:04 -81.25, 10.99 83.04 10/28/2017 02:02:57 -81.25, 10.83 83.09 2.88 67
7 10/28/2017 02:53:30 81.26, 178.70 96.99 10/28/2017 02:53:36 81.26, 178.89 97.01 3.20 6
8 10/30/2017 21:38:19 -81.26, 77.50 82.10 10/30/2017 21:37:15 -81.26, 77.64 82.12 2.50 64
9 10/30/2017 22:27:45 81.26,-114.82 97.92 10/30/2017 22:27:55 81.26,-114.71 97.94 1.86 10
10 11/02/2017 17:12:34 -81.26, 143.96 81.21 11/02/2017 17:11:34 -81.26, 144.05 81.22 1.58 60




NCC Satellite Simultaneous Nadir Overpasses (SNOs) Prediction Service
